Simultaneous Nadir Overpasses (SNOs) Predictions

Prediction of SNOs between NOAA-19 and NPP Satellite Orbit:

Table of predicted SNOs for the next 14.0 days since TLE Epoch: 5/1/2015
Index Date (NOAA-19) Time (NOAA-19) Lat,Lon (NOAA-19) SZA (NOAA-19 ) Date (NPP) Time (NPP) Lat,Lon (NPP) SZA (NPP ) Distance(km) Time Diff (sec)
1 05/05/2015 17:40:13 81.01,-136.80 68.14 05/05/2015 17:41:18 81.01,-136.97 68.13 3.01 65
2 05/05/2015 18:31:17 -81.02, 30.20 111.84 05/05/2015 18:32:03 -81.02, 30.22 111.87 0.58 46
3 05/05/2015 19:22:15 81.01,-162.41 68.13 05/05/2015 19:22:47 81.02,-162.38 68.11 0.56 32
4 05/05/2015 20:13:17 -81.00, 5.34 111.95 05/05/2015 20:13:31 -81.01, 5.18 111.94 2.91 14
5 05/05/2015 21:04:16 81.00, 172.74 68.02 05/05/2015 21:04:16 81.00, 172.58 68.04 2.80 0
6 05/05/2015
